FENGYUN 1C DEB

Satellite information

Favourite Embed

Satellite Type and Status

DEBRISIN ORBIT

Key statistics

Satellite FENGYUN 1C DEB at a glance.

Uptime

9616

Days in orbit

Revolutions

≈ 13.5

Per day

Orbit

SSO

Sun Synchronous Orbit

Inclination

99.7

Latest

Satellite identification and parameters

Extended collection of information and parameters for FENGYUN 1C DEB.

Object identification

Identified? True

Debris? True

Object name: FENGYUN 1C DEB

International designator: 1999-025PK

Object number (NORAD): 30058

Object ID (CCSDS): 30058

Country: PEOPLES REPUBLIC OF CHINA (PRC)

Current information (Y/N): Y

RCS size: SMALL

Orbital parameters

Period: 106.818 minutes

Inclination: 99.6512 deg

SMA: 7457.464 km

Apoapsis: 1315.789 km

Periapsis: 842.869 km

RAAN: 256.3678 deg

Eccentricy: 0.0317078

Argument of periapsis: 35.3786 deg

Mean anomaly: 40.7604 deg

Mean motion: 13.48081099 rev/day

Mean motion (dot): 0.00001193 rev/day2

B* drag term: 0.0014701399 1/REarth

Two-line elements (TLE)

Creation date: Sept. 6, 2025, 2:09 a.m.

Reference frame: TEME

Reference center: EARTH

Epoch: Sept. 5, 2025, 10:39 p.m. UTC

TLE line 0: 0 FENGYUN 1C DEB

TLE line 1: 1 30058U 99025PK 25248.94383799 .00001193 00000-0 14701-2 0 9993

TLE line 2: 2 30058 99.6512 256.3678 0317078 35.3786 40.7604 13.48081099915307

Live tracking on map

Real-time ground track for satellite FENGYUN 1C DEB.

In-orbit conjunctions

A list of the most updated potential collisions computed for object FENGYUN 1C DEB.

Target Orbit TCA Probability of collision Miss distance Type
METEOR 2-17 DEB LEO 2024-08-28 15:26:04 0.0001156678 146.0 (m) DEBRIS

Associated space launch

Chinese polar orbiting meteorological satellite

FENGYUN 1C DEB was lifted into orbit during the mission ‘Long March 4B | Feng Yun 1C’, on board a Long March 4B space rocket.

The launch took place on May 10, 1999, 1:33 a.m. from Launch Complex 7.

For more information about the launch, click the button.

Launch to space Long March 4B | Feng Yun 1C
Long March 4B | Feng Yun 1C

Agency: N/A

Status: Launch Successful

Launch date: May 10, 1999, 1:33 a.m. UTC

Rocket: Long March 4B

Launch pad: Launch Complex 7

Location: Taiyuan Satellite Launch Center, People's Republic of China

...

Latest news about this satellite

There are no fresh news available about this satellite. Check back as we update our databases every day.


Newsletter sign-up

Weekly statistics, charts and insights to help you stay on top of the space industry.